Total_Precipitation_Accumulation
0.06 0.07 0.05 0.07 0.07 0.05 0.05 0.06 0.06 0.05 0.05 0.06 0.04 0.04 0.04 0.04 0.03 0.03 0.03 0.03 0.02 0.02 0.03 0.01 0.02 0.02 0.01 0.01 0.00 0.00 0.00 0.01 0.00 0.00 0.00 0.00 0.00 0.00 0.00 0.00 0.00 0.00 0.00 0.00 0.00 0.00 0.00 0.00 0.00 0.00 0.00 0.00 0.00 0.00 0.00 0.00 0.00 0.00 0.00 0.00 0.00 0.00 0.00 0.00 0.00 0.00 0.00 0.00 0.00 0.00 0.00 0.00 0.00 0.00 0.00 0.00 0.02 0.01 0.02 0.05 0.06 0.07 0.17 0.16 0.11 0.15 0.05 0.05
0.08 0.06 0.07 0.06 0.06 0.06 0.05 0.04 0.05 0.05 0.04 0.03 0.05 0.04 0.05 0.04 0.05 0.02 0.03 0.02 0.03 0.02 0.02 0.03 0.01 0.01 0.01 0.00 0.00 0.00 0.00 0.00 0.00 0.00 0.00 0.00 0.00 0.00 0.00 0.00 0.00 0.00 0.00 0.00 0.00 0.00 0.00 0.00 0.00 0.00 0.00 0.00 0.00 0.00 0.00 0.00 0.00 0.00 0.00 0.00 0.00 0.00 0.00 0.00 0.00 0.00 0.00 0.00 0.00 0.01 0.01 0.00 0.00 0.00 0.00 0.03 0.01 0.02 0.02 0.06 0.07 0.25 0.26 0.26 0.12 0.10 0.14 0.06
0.07 0.07 0.07 0.06 0.08 0.06 0.06 0.05 0.04 0.05 0.05 0.03 0.04 0.05 0.04 0.04 0.04 0.03 0.02 0.02 0.02 0.02 0.01 0.02 0.03 0.01 0.00 0.00 0.00 0.00 0.00 0.00 0.00 0.00 0.00 0.00 0.00 0.00 0.00 0.00 0.00 0.00 0.00 0.00 0.00 0.00 0.00 0.00 0.00 0.00 0.00 0.00 0.00 0.00 0.00 0.00 0.00 0.00 0.00 0.00 0.00 0.00 0.00 0.00 0.00 0.00 0.00 0.00 0.00 0.02 0.00 0.00 0.00 0.00 0.00 0.02 0.01 0.01 0.05 0.06 0.10 0.29 0.41 0.27 0.21 0.33 0.17 0.15
0.05 0.06 0.05 0.07 0.06 0.06 0.06 0.04 0.05 0.04 0.04 0.06 0.04 0.04 0.04 0.04 0.03 0.04 0.04 0.03 0.01 0.02 0.02 0.02 0.01 0.01 0.00 0.00 0.00 0.00 0.00 0.00 0.00 0.00 0.00 0.00 0.00 0.00 0.00 0.00 0.00 0.00 0.00 0.00 0.00 0.00 0.00 0.00 0.00 0.00 0.00 0.00 0.00 0.00 0.00 0.00 0.00 0.00 0.00 0.00 0.00 0.00 0.00 0.00 0.00 0.00 0.00 0.00 0.00 0.01 0.01 0.00 0.00 0.00 0.00 0.00 0.04 0.01 0.07 0.04 0.07 0.14 0.24 0.25 0.38 0.34 0.61 0.81
0.06 0.07 0.08 0.06 0.06 0.06 0.06 0.06 0.05 0.08 0.06 0.05 0.06 0.06 0.05 0.03 0.05 0.04 0.04 0.02 0.03 0.02 0.03 0.02 0.01 0.00 0.00 0.00 0.00 0.00 0.00 0.00 0.00 0.00 0.00 0.00 0.00 0.00 0.00 0.00 0.00 0.00 0.00 0.00 0.00 0.00 0.00 0.00 0.00 0.00 0.00 0.00 0.00 0.00 0.00 0.00 0.00 0.00 0.00 0.00 0.00 0.00 0.00 0.00 0.00 0.00 0.00 0.00 0.00 0.01 0.01 0.01 0.01 0.01 0.00 0.00 0.00 0.05 0.02 0.05 0.03 0.05 0.45 0.17 0.32 0.38 0.54 0.70
0.04 0.08 0.09 0.07 0.06 0.08 0.07 0.05 0.06 0.04 0.05 0.05 0.06 0.05 0.07 0.06 0.05 0.05 0.03 0.04 0.04 0.03 0.02 0.01 0.01 0.00 0.00 0.00 0.00 0.00 0.00 0.00 0.00 0.00 0.00 0.00 0.00 0.00 0.00 0.00 0.00 0.00 0.00 0.00 0.00 0.00 0.00 0.00 0.00 0.00 0.00 0.00 0.00 0.00 0.00 0.00 0.00 0.00 0.00 0.00 0.00 0.00 0.00 0.00 0.00 0.00 0.00 0.00 0.01 0.00 0.00 0.00 0.01 0.01 0.00 0.00 0.06 0.06 0.05 0.11 0.03 0.09 0.15 0.10 0.13 0.15 0.30 0.58
0.06 0.09 0.06 0.06 0.07 0.06 0.05 0.07 0.05 0.06 0.07 0.05 0.05 0.05 0.05 0.08 0.05 0.03 0.04 0.05 0.04 0.04 0.01 0.01 0.01 0.01 0.00 0.00 0.00 0.00 0.00 0.00 0.00 0.00 0.00 0.00 0.00 0.00 0.00 0.00 0.00 0.00 0.00 0.00 0.00 0.00 0.00 0.00 0.00 0.00 0.00 0.00 0.00 0.00 0.00 0.00 0.00 0.00 0.00 0.00 0.00 0.00 0.00 0.00 0.00 0.00 0.00 0.00 0.00 0.00 0.00 0.00 0.00 0.01 0.00 0.01 0.00 0.03 0.01 0.02 0.02 0.07 0.13 0.13 0.15 0.16 0.28 0.49
0.06 0.05 0.05 0.05 0.04 0.09 0.09 0.07 0.07 0.05 0.06 0.06 0.06 0.05 0.05 0.06 0.07 0.06 0.04 0.04 0.04 0.02 0.03 0.01 0.01 0.00 0.00 0.00 0.00 0.00 0.00 0.00 0.00 0.00 0.00 0.00 0.00 0.00 0.00 0.00 0.00 0.00 0.00 0.00 0.00 0.00 0.00 0.00 0.00 0.00 0.00 0.00 0.00 0.00 0.00 0.00 0.00 0.00 0.00 0.00 0.00 0.00 0.00 0.00 0.00 0.00 0.00 0.00 0.00 0.00 0.00 0.01 0.00 0.01 0.00 0.02 0.01 0.01 0.04 0.00 0.01 0.05 0.14 0.16 0.24 0.58 0.75 1.02
0.08 0.05 0.05 0.05 0.05 0.04 0.06 0.07 0.05 0.05 0.04 0.04 0.05 0.04 0.05 0.04 0.06 0.04 0.03 0.05 0.02 0.02 0.01 0.01 0.00 0.01 0.00 0.02 0.00 0.00 0.00 0.00 0.00 0.00 0.00 0.00 0.00 0.00 0.00 0.00 0.00 0.00 0.00 0.00 0.00 0.00 0.00 0.00 0.00 0.00 0.00 0.00 0.00 0.00 0.00 0.00 0.00 0.00 0.00 0.00 0.00 0.00 0.00 0.00 0.00 0.00 0.00 0.00 0.00 0.00 0.00 0.00 0.00 0.00 0.02 0.11 0.05 0.03 0.02 0.01 0.02 0.04 0.10 0.31 0.34 0.36 0.64 0.76
0.07 0.07 0.05 0.05 0.04 0.04 0.05 0.05 0.05 0.05 0.03 0.04 0.03 0.04 0.06 0.06 0.03 0.08 0.04 0.04 0.03 0.03 0.02 0.01 0.01 0.01 0.00 0.00 0.00 0.01 0.00 0.00 0.00 0.00 0.00 0.00 0.00 0.00 0.00 0.00 0.00 0.00 0.00 0.00 0.00 0.00 0.00 0.00 0.00 0.00 0.00 0.00 0.00 0.00 0.00 0.00 0.00 0.00 0.00 0.00 0.00 0.00 0.00 0.00 0.00 0.00 0.00 0.00 0.00 0.00 0.00 0.00 0.00 0.00 0.18 1.19 0.21 0.06 0.03 0.02 0.05 0.06 0.15 0.41 0.52 0.54 0.72 1.00
0.15 0.07 0.08 0.07 0.04 0.03 0.04 0.03 0.04 0.04 0.04 0.03 0.04 0.06 0.05 0.04 0.07 0.04 0.06 0.03 0.05 0.02 0.02 0.01 0.04 0.01 0.03 0.01 0.01 0.00 0.00 0.00 0.00 0.00 0.00 0.00 0.00 0.00 0.00 0.00 0.00 0.00 0.00 0.00 0.00 0.00 0.00 0.00 0.00 0.00 0.00 0.00 0.00 0.00 0.00 0.00 0.00 0.00 0.00 0.00 0.00 0.00 0.00 0.00 0.00 0.00 0.00 0.00 0.00 0.00 0.00 0.00 0.00 0.00 0.03 0.12 0.77 0.52 0.06 0.05 0.05 0.09 0.27 0.38 0.58 0.69 0.53 1.07
0.07 0.07 0.15 0.10 0.08 0.05 0.06 0.05 0.05 0.05 0.04 0.05 0.06 0.05 0.09 0.04 0.05 0.03 0.05 0.05 0.02 0.03 0.01 0.00 0.02 0.08 0.01 0.03 0.04 0.00 0.00 0.00 0.00 0.00 0.00 0.00 0.00 0.00 0.00 0.00 0.00 0.00 0.00 0.00 0.00 0.00 0.00 0.00 0.00 0.00 0.00 0.00 0.00 0.00 0.00 0.00 0.00 0.00 0.00 0.00 0.00 0.00 0.00 0.00 0.00 0.00 0.00 0.00 0.00 0.00 0.00 0.00 0.00 0.01 0.10 0.11 0.15 0.90 1.16 0.19 0.06 0.12 0.23 0.44 0.40 0.59 0.46 0.55
0.08 0.09 0.09 0.08 0.06 0.11 0.07 0.04 0.06 0.05 0.04 0.05 0.07 0.06 0.05 0.07 0.05 0.06 0.04 0.03 0.02 0.01 0.01 0.02 0.01 0.07 0.10 0.04 0.00 0.00 0.00 0.00 0.00 0.00 0.00 0.00 0.00 0.00 0.00 0.00 0.00 0.00 0.00 0.00 0.00 0.00 0.00 0.00 0.00 0.00 0.00 0.00 0.00 0.00 0.00 0.00 0.00 0.00 0.00 0.00 0.00 0.00 0.00 0.00 0.00 0.00 0.00 0.00 0.00 0.00 0.01 0.00 0.00 0.05 0.07 1.06 0.51 0.68 0.26 0.26 0.23 0.26 0.20 0.30 0.59 0.73 0.98 1.19
0.09 0.09 0.10 0.10 0.09 0.07 0.05 0.10 0.05 0.06 0.05 0.05 0.04 0.08 0.06 0.05 0.09 0.07 0.06 0.05 0.04 0.04 0.01 0.02 0.08 0.03 0.12 0.01 0.00 0.00 0.00 0.00 0.00 0.00 0.00 0.00 0.00 0.00 0.00 0.00 0.00 0.00 0.00 0.00 0.00 0.00 0.00 0.00 0.00 0.00 0.00 0.00 0.00 0.00 0.00 0.00 0.00 0.00 0.00 0.00 0.00 0.00 0.00 0.00 0.00 0.00 0.00 0.00 0.00 0.00 0.01 0.04 0.01 0.11 0.18 1.22 0.80 0.31 0.20 0.38 0.44 0.40 0.53 0.66 0.91 0.92 0.60 0.61
0.18 0.10 0.10 0.07 0.07 0.10 0.10 0.04 0.03 0.04 0.04 0.05 0.06 0.06 0.07 0.13 0.05 0.04 0.08 0.05 0.05 0.03 0.03 0.07 0.04 0.04 0.04 0.00 0.00 0.00 0.00 0.00 0.00 0.00 0.00 0.00 0.00 0.00 0.00 0.00 0.00 0.00 0.00 0.00 0.00 0.00 0.00 0.00 0.00 0.00 0.00 0.00 0.00 0.00 0.00 0.00 0.00 0.00 0.00 0.00 0.00 0.00 0.00 0.00 0.00 0.00 0.00 0.00 0.00 0.00 0.00 0.14 0.04 0.11 0.10 0.16 0.58 0.47 0.72 0.98 1.20 0.83 0.86 1.39 1.57 1.09 1.16 1.57
0.22 0.12 0.11 0.19 0.08 0.06 0.04 0.07 0.05 0.05 0.02 0.05 0.05 0.03 0.07 0.05 0.05 0.07 0.07 0.04 0.06 0.04 0.06 0.07 0.02 0.01 0.01 0.00 0.00 0.00 0.00 0.00 0.00 0.00 0.00 0.00 0.00 0.00 0.00 0.00 0.00 0.00 0.00 0.00 0.00 0.00 0.00 0.00 0.00 0.00 0.00 0.00 0.00 0.00 0.00 0.00 0.00 0.00 0.00 0.00 0.00 0.00 0.00 0.00 0.00 0.00 0.00 0.00 0.00 0.00 0.03 0.11 0.13 0.17 0.09 0.11 0.23 0.59 0.85 1.23 1.11 0.61 1.09 1.35 1.32 1.02 1.39 0.80
0.22 0.13 0.09 0.09 0.11 0.09 0.06 0.07 0.06 0.11 0.07 0.03 0.03 0.05 0.14 0.07 0.11 0.04 0.06 0.07 0.07 0.04 0.06 0.02 0.02 0.03 0.07 0.00 0.00 0.00 0.00 0.00 0.00 0.00 0.00 0.00 0.00 0.00 0.00 0.00 0.00 0.00 0.00 0.00 0.00 0.00 0.00 0.00 0.00 0.00 0.00 0.00 0.00 0.00 0.00 0.00 0.00 0.00 0.00 0.00 0.00 0.00 0.00 0.00 0.00 0.00 0.00 0.00 0.00 0.00 0.00 0.05 0.10 0.19 0.25 0.36 0.81 0.79 0.52 1.51 1.55 1.68 1.18 0.97 1.45 1.12 0.75 1.24
0.16 0.14 0.14 0.14 0.07 0.07 0.07 0.09 0.08 0.13 0.05 0.04 0.04 0.03 0.11 0.08 0.09 0.07 0.09 0.08 0.05 0.03 0.03 0.03 0.01 0.02 0.00 0.00 0.00 0.00 0.00 0.00 0.00 0.00 0.00 0.00 0.00 0.00 0.00 0.00 0.00 0.00 0.00 0.00 0.00 0.00 0.00 0.00 0.00 0.00 0.00 0.00 0.00 0.00 0.00 0.00 0.00 0.00 0.00 0.00 0.00 0.00 0.00 0.00 0.00 0.00 0.00 0.00 0.00 0.00 0.00 0.06 0.10 0.18 0.24 0.83 0.70 0.87 1.25 1.24 1.08 1.02 0.68 0.47 0.44 0.41 0.88 0.71
0.26 0.18 0.12 0.08 0.08 0.19 0.11 0.09 0.10 0.05 0.19 0.06 0.03 0.08 0.08 0.09 0.07 0.08 0.07 0.14 0.10 0.12 0.08 0.07 0.06 0.01 0.04 0.00 0.00 0.00 0.00 0.00 0.00 0.00 0.00 0.00 0.00 0.00 0.00 0.00 0.00 0.00 0.00 0.00 0.00 0.00 0.00 0.00 0.00 0.00 0.00 0.00 0.00 0.00 0.00 0.00 0.00 0.00 0.00 0.01 0.00 0.00 0.00 0.00 0.00 0.00 0.00 0.00 0.00 0.00 0.04 0.05 0.13 0.21 0.68 2.38 1.64 0.80 0.52 0.69 1.07 0.33 0.43 0.42 0.64 0.83 0.65 0.71
0.14 0.18 0.17 0.16 0.21 0.11 0.20 0.10 0.08 0.12 0.09 0.12 0.13 0.10 0.11 0.09 0.09 0.08 0.08 0.10 0.07 0.00 0.00 0.00 0.00 0.00 0.00 0.00 0.00 0.00 0.00 0.00 0.00 0.00 0.00 0.00 0.00 0.00 0.00 0.00 0.00 0.00 0.00 0.00 0.00 0.00 0.00 0.00 0.01 0.02 0.01 0.01 0.00 0.00 0.00 0.00 0.00 0.00 0.00 0.00 0.01 0.00 0.01 0.00 0.00 0.00 0.00 0.00 0.00 0.02 0.11 0.08 0.16 0.16 0.74 1.84 1.38 0.83 1.12 1.07 0.57 0.47 0.32 0.94 0.44 0.63 0.82 1.22
0.24 0.12 0.17 0.19 0.12 0.23 0.14 0.18 0.15 0.07 0.08 0.10 0.16 0.18 0.08 0.06 0.04 0.10 0.04 0.01 0.00 0.00 0.00 0.00 0.00 0.00 0.00 0.00 0.00 0.00 0.00 0.00 0.00 0.00 0.00 0.00 0.00 0.00 0.00 0.00 0.00 0.00 0.00 0.00 0.00 0.00 0.00 0.00 0.00 0.00 0.00 0.00 0.00 0.00 0.00 0.00 0.00 0.00 0.00 0.00 0.00 0.00 0.00 0.00 0.00 0.00 0.00 0.00 0.02 0.05 0.03 0.08 0.09 0.29 1.01 0.48 0.96 0.91 0.56 1.42 1.39 1.54 1.17 0.63 1.11 1.14 1.49 1.30
0.31 0.24 0.22 0.23 0.39 0.22 0.25 0.16 0.12 0.09 0.18 0.22 0.38 0.16 0.11 0.02 0.04 0.03 0.14 0.08 0.01 0.00 0.00 0.00 0.00 0.00 0.00 0.00 0.00 0.00 0.00 0.00 0.00 0.00 0.00 0.00 0.00 0.00 0.00 0.00 0.00 0.00 0.00 0.00 0.00 0.01 0.00 0.00 0.00 0.00 0.01 0.00 0.00 0.00 0.00 0.00 0.00 0.00 0.00 0.00 0.00 0.00 0.00 0.00 0.00 0.00 0.00 0.00 0.03 0.04 0.05 0.14 0.16 0.26 0.57 0.50 0.53 1.31 1.30 1.91 1.98 1.53 0.94 1.17 0.62 0.94 0.52 0.49
0.27 0.16 0.28 0.19 0.28 0.34 0.23 0.23 0.18 0.21 0.49 0.38 0.22 0.05 0.17 0.02 0.00 0.15 0.10 0.13 0.03 0.03 0.01 0.00 0.00 0.00 0.00 0.00 0.00 0.00 0.00 0.00 0.00 0.00 0.00 0.00 0.00 0.00 0.00 0.00 0.00 0.00 0.00 0.00 0.00 0.00 0.01 0.03 0.02 0.00 0.00 0.00 0.00 0.00 0.00 0.00 0.00 0.00 0.00 0.00 0.00 0.00 0.00 0.00 0.00 0.00 0.00 0.00 0.02 0.03 0.04 0.15 0.16 0.24 0.32 0.16 0.32 0.46 1.05 0.58 1.03 2.03 0.87 0.80 1.14 0.61 1.15 0.61
0.23 0.31 0.20 0.31 0.26 0.24 0.26 0.35 0.30 0.39 0.28 0.23 0.13 0.09 0.10 0.03 0.02 0.09 0.17 0.13 0.00 0.00 0.00 0.00 0.00 0.00 0.00 0.00 0.01 0.00 0.00 0.00 0.00 0.02 0.00 0.00 0.00 0.00 0.00 0.00 0.00 0.00 0.00 0.00 0.00 0.00 0.00 0.00 0.00 0.00 0.00 0.00 0.00 0.00 0.00 0.00 0.00 0.00 0.00 0.00 0.00 0.00 0.00 0.00 0.04 0.00 0.00 0.00 0.00 0.03 0.12 0.15 0.17 0.22 0.21 0.20 0.12 0.11 0.25 0.22 0.61 0.64 0.73 0.75 0.87 0.56 0.62 0.50
0.33 0.29 0.41 0.29 0.31 0.30 0.31 0.46 0.30 0.31 0.29 0.38 0.20 0.11 0.09 0.08 0.02 0.12 0.12 0.08 0.00 0.00 0.00 0.00 0.00 0.00 0.00 0.00 0.00 0.00 0.00 0.00 0.00 0.00 0.00 0.00 0.01 0.00 0.00 0.00 0.00 0.00 0.00 0.00 0.00 0.00 0.00 0.01 0.00 0.00 0.00 0.00 0.00 0.00 0.00 0.00 0.00 0.00 0.00 0.00 0.00 0.00 0.00 0.00 0.00 0.01 0.01 0.03 0.10 0.05 0.21 0.25 0.26 0.30 0.23 0.33 0.30 0.24 0.26 0.34 0.47 0.46 0.64 0.40 0.82 0.81 0.50 0.37
0.31 0.28 0.27 0.27 0.26 0.42 0.75 0.52 0.50 0.50 0.35 0.49 0.29 0.16 0.08 0.05 0.05 0.09 0.15 0.13 0.02 0.03 0.00 0.04 0.00 0.02 0.00 0.00 0.00 0.00 0.00 0.01 0.00 0.00 0.00 0.00 0.01 0.00 0.03 0.00 0.00 0.00 0.00 0.00 0.00 0.00 0.00 0.00 0.00 0.00 0.00 0.00 0.00 0.00 0.00 0.00 0.01 0.00 0.00 0.00 0.00 0.00 0.00 0.00 0.01 0.01 0.02 0.01 0.06 0.00 0.06 0.17 0.19 0.22 0.21 0.35 0.29 0.37 0.39 0.48 0.67 0.58 0.42 0.43 0.73 0.90 0.87 0.63
0.21 0.30 0.36 0.28 0.36 0.50 0.34 0.61 0.63 0.41 0.60 0.50 0.38 0.34 0.10 0.21 0.18 0.18 0.35 0.11 0.04 0.06 0.01 0.01 0.01 0.04 0.00 0.06 0.00 0.00 0.46 0.07 0.00 0.00 0.00 0.00 0.01 0.01 0.01 0.00 0.00 0.00 0.01 0.06 0.00 0.01 0.00 0.00 0.00 0.00 0.00 0.00 0.00 0.01 0.00 0.00 0.01 0.02 0.00 0.00 0.00 0.01 0.00 0.00 0.01 0.00 0.02 0.00 0.00 0.00 0.01 0.12 0.27 0.09 0.07 0.20 0.29 0.24 0.52 0.53 0.31 0.41 0.37 0.41 0.63 1.13 1.07 0.38
0.28 0.26 0.26 0.21 0.46 0.47 0.57 0.74 0.48 0.55 0.47 0.45 0.54 0.21 0.24 0.17 0.14 0.63 0.26 0.14 0.07 0.00 0.03 0.00 0.01 0.00 0.01 0.00 0.00 0.00 0.02 0.00 0.03 0.20 0.00 0.00 0.00 0.01 0.00 0.00 0.00 0.00 0.00 0.00 0.07 0.02 0.00 0.01 0.01 0.00 0.01 0.00 0.02 0.01 0.00 0.01 0.01 0.00 0.00 0.00 0.00 0.00 0.00 0.00 0.00 0.01 0.01 0.04 0.06 0.03 0.02 0.08 0.11 0.12 0.07 0.25 0.35 0.25 0.43 0.34 0.24 0.35 0.47 0.71 0.65 0.67 0.70 0.92
0.44 0.26 0.21 0.38 0.54 0.33 0.42 0.73 0.55 0.75 0.46 0.72 0.14 0.28 0.52 0.38 0.16 0.74 0.35 0.11 0.15 0.01 0.04 0.09 0.03 0.01 0.01 0.00 0.04 0.00 0.01 0.01 0.02 0.03 0.00 0.00 0.00 0.01 0.08 0.01 0.00 0.00 0.00 0.00 0.00 0.01 0.01 0.00 0.01 0.01 0.02 0.02 0.00 0.01 0.00 0.00 0.01 0.00 0.00 0.00 0.00 0.00 0.00 0.00 0.01 0.02 0.03 0.01 0.04 0.03 0.03 0.04 0.21 0.09 0.19 0.22 0.16 0.16 0.24 0.26 0.47 0.59 1.11 0.54 0.69 0.38 0.38 0.55
0.37 0.74 0.35 0.77 0.80 0.71 0.62 0.95 0.38 0.46 0.36 0.29 0.59 0.57 0.59 0.40 1.31 0.40 0.72 0.12 0.10 0.08 0.02 0.09 0.02 0.07 0.01 0.04 0.07 0.10 0.11 0.06 0.01 0.07 0.01 0.02 0.03 0.00 0.00 0.00 0.01 0.02 0.02 0.00 0.03 0.01 0.01 0.00 0.00 0.01 0.01 0.00 0.00 0.01 0.00 0.00 0.00 0.00 0.00 0.00 0.00 0.00 0.01 0.00 0.00 0.02 0.12 0.03 0.01 0.03 0.01 0.02 0.22 0.17 0.13 0.16 0.16 0.12 0.19 0.23 0.21 0.27 0.36 0.51 0.60 0.93 0.83 0.30
0.19 0.46 0.75 0.37 0.93 0.56 0.48 0.62 0.53 0.45 0.31 0.28 0.29 0.41 0.49 0.54 0.54 0.38 0.28 0.11 0.01 0.18 0.02 0.03 0.16 0.03 0.14 0.16 0.12 0.08 0.08 0.04 0.08 0.01 0.06 0.01 0.15 0.03 0.06 0.04 0.01 0.02 0.03 0.02 0.10 0.02 0.01 0.04 0.07 0.02 0.00 0.00 0.00 0.00 0.01 0.00 0.00 0.00 0.03 0.02 0.00 0.01 0.00 0.01 0.01 0.02 0.05 0.00 0.02 0.03 0.03 0.06 0.17 0.29 0.22 0.13 0.07 0.10 0.12 0.12 0.16 0.13 0.23 0.32 0.20 0.25 0.22 0.27
0.18 0.26 0.28 0.35 0.42 0.43 0.48 0.67 0.48 0.36 0.33 0.53 0.42 0.51 0.44 0.43 0.42 0.38 0.15 0.01 0.21 0.43 0.19 0.13 0.09 0.11 0.10 0.11 0.09 0.07 0.14 0.22 0.20 0.06 0.06 0.03 0.11 0.39 0.14 0.31 0.15 0.12 0.05 0.09 0.08 0.01 0.08 0.10 0.04 0.03 0.03 0.00 0.01 0.00 0.00 0.00 0.00 0.00 0.03 0.05 0.10 0.14 0.02 0.07 0.02 0.03 0.00 0.02 0.01 0.01 0.02 0.06 0.08 0.23 0.53 0.15 0.11 0.08 0.07 0.10 0.18 0.12 0.13 0.13 0.08 0.12 0.54 0.27
0.12 0.22 0.13 0.09 0.08 0.25 0.16 0.25 0.25 0.27 0.61 0.36 1.04 0.68 0.46 0.44 0.15 0.11 0.33 0.17 0.42 0.45 0.52 0.33 0.28 0.15 0.13 0.10 0.09 0.15 0.10 0.21 0.10 0.12 0.06 0.17 0.14 0.09 0.08 0.13 0.07 0.13 0.18 0.11 0.10 0.04 0.07 0.10 0.02 0.07 0.00 0.01 0.00 0.05 0.02 0.02 0.03 0.06 0.06 0.10 0.09 0.11 0.13 0.08 0.11 0.06 0.07 0.02 0.02 0.01 0.02 0.08 0.28 0.22 0.25 0.14 0.12 0.06 0.04 0.06 0.12 0.07 0.06 0.08 0.09 0.10 0.17 0.19
0.02 0.02 0.08 0.07 0.09 0.05 0.10 0.18 0.77 0.50 0.30 1.04 0.97 0.62 1.37 0.36 0.41 0.14 0.35 0.23 0.65 0.24 0.41 0.48 0.28 0.16 0.14 0.26 0.44 0.09 0.25 0.05 0.21 0.14 0.03 0.09 0.04 0.15 0.10 0.02 0.02 0.06 0.21 0.21 0.24 0.11 0.22 0.47 0.05 0.01 0.15 0.00 0.00 0.00 0.04 0.05 0.03 0.12 0.03 0.02 0.12 0.19 0.10 0.08 0.07 0.12 0.10 0.13 0.07 0.05 0.03 0.13 0.13 1.31 0.27 0.10 0.10 0.04 0.03 0.11 0.05 0.09 0.09 0.16 0.09 0.20 0.19 0.26
0.01 0.02 0.06 0.12 0.11 0.07 0.25 0.10 0.38 0.40 0.63 1.40 0.69 0.50 0.31 0.17 0.30 0.28 0.34 0.57 0.55 0.27 0.39 0.26 0.30 0.13 0.26 0.16 0.13 0.06 0.17 0.44 0.05 0.08 0.09 0.05 0.17 0.15 0.07 0.09 0.05 0.02 0.04 0.21 0.09 0.10 0.09 0.14 0.06 0.01 0.01 0.00 0.02 0.01 0.01 0.04 0.05 0.01 0.04 0.08 0.10 0.11 0.09 0.14 0.24 0.08 0.22 0.14 0.08 0.11 0.14 0.28 0.48 0.85 0.94 0.65 0.07 0.01 0.05 0.07 0.04 0.06 0.08 0.10 0.15 0.16 0.21 0.21
0.02 0.09 0.10 0.25 0.16 0.08 0.06 0.17 0.49 0.28 0.30 0.45 0.67 0.54 0.30 0.21 0.61 0.64 0.74 0.53 0.46 0.91 0.49 0.25 0.34 0.27 0.18 0.38 0.04 0.16 0.08 0.32 0.13 0.07 0.12 0.11 0.08 0.18 0.02 0.05 0.03 0.02 0.15 0.11 0.17 0.15 0.03 0.28 0.01 0.03 0.00 0.01 0.04 0.00 0.00 0.00 0.43 0.15 0.00 0.05 0.04 0.07 0.11 0.26 0.05 0.03 0.01 0.01 0.05 0.03 0.22 0.35 0.20 0.46 0.68 0.56 0.05 0.07 0.14 0.07 0.05 0.27 0.39 0.52 0.62 0.84 0.92 0.88
0.13 0.23 0.34 0.31 0.26 0.17 0.10 0.20 0.29 0.37 0.23 0.45 0.52 0.52 0.15 0.33 0.59 0.72 0.68 0.56 0.74 0.62 0.56 0.62 0.53 0.26 0.31 0.35 0.25 0.08 0.29 0.12 0.24 0.08 0.39 0.16 0.32 0.09 0.06 0.07 0.00 0.02 0.01 0.01 0.29 0.02 0.14 0.37 0.01 0.01 0.02 0.00 0.00 0.00 0.00 0.00 0.00 0.04 0.03 0.15 0.09 0.03 0.10 0.10 0.15 0.04 0.04 0.05 0.16 0.03 0.12 0.40 0.11 0.74 0.67 0.52 0.36 0.25 0.22 0.25 0.42 0.44 0.54 0.62 0.79 0.75 0.87 1.01
0.23 0.34 0.40 0.33 0.29 0.15 0.14 0.21 0.28 0.49 0.46 0.39 0.43 0.34 0.34 0.54 0.50 0.74 0.66 0.44 0.67 0.75 0.81 0.73 0.58 0.33 0.39 0.32 0.39 0.09 0.17 0.31 0.43 0.13 0.30 0.16 0.42 0.02 0.06 0.11 0.03 0.03 0.01 0.03 0.08 0.25 0.09 0.31 0.04 0.00 0.00 0.01 0.01 0.00 0.00 0.00 0.00 0.03 0.13 0.04 0.14 0.30 0.14 0.05 0.04 0.12 0.12 0.06 0.13 0.09 0.10 0.18 0.26 0.60 0.42 0.61 0.55 0.35 0.27 0.25 0.18 0.16 0.14 0.37 0.72 0.98 0.93 0.56
0.37 0.40 0.78 0.28 0.15 0.12 0.18 0.27 0.36 0.78 0.68 0.44 0.35 0.50 0.41 0.57 0.48 0.74 0.53 0.46 0.76 0.74 0.72 0.94 0.71 0.58 0.57 0.46 0.29 0.20 0.18 0.34 0.21 0.37 0.56 0.42 0.59 0.26 0.12 0.02 0.08 0.01 0.01 0.02 0.12 0.08 0.04 0.23 0.17 0.01 0.01 0.10 0.01 0.00 0.09 0.03 0.02 0.00 0.02 0.22 0.10 0.05 0.16 0.20 0.07 0.26 0.13 0.28 0.02 0.27 0.06 0.13 0.23 0.38 0.28 0.33 0.29 0.42 0.28 0.22 0.34 0.36 0.47 0.33 0.35 0.26 0.40 0.42
0.59 0.58 0.82 0.24 0.09 0.19 0.17 0.22 0.38 0.79 0.55 0.41 0.35 0.41 0.53 0.40 0.60 0.52 0.82 0.52 1.06 0.86 1.03 0.75 0.47 0.61 0.34 0.34 0.22 0.26 0.10 0.14 0.22 0.55 0.43 0.70 0.49 0.25 0.32 0.02 0.27 0.08 0.03 0.02 0.07 0.07 0.22 0.08 0.44 0.09 0.03 0.05 0.19 0.01 0.04 0.04 0.08 0.09 0.06 0.16 0.09 0.07 0.16 0.09 0.19 0.10 0.12 0.12 0.13 0.11 0.25 0.50 0.44 0.35 0.23 0.39 0.23 0.16 0.46 0.43 0.32 0.48 0.53 0.70 0.61 0.36 0.41 0.44
0.53 1.06 1.19 0.22 0.19 0.22 0.23 0.47 0.77 0.52 0.32 0.23 0.23 0.34 0.30 0.50 0.61 0.63 0.62 0.52 0.68 0.62 0.76 0.53 0.45 0.60 0.44 0.43 0.54 0.09 0.25 0.20 0.15 0.41 0.33 0.41 0.48 0.86 0.15 0.15 0.05 0.24 0.03 0.09 0.08 0.15 0.17 0.24 0.30 0.12 0.35 0.12 0.09 0.02 0.04 0.13 0.08 0.24 0.12 0.15 0.08 0.13 0.16 0.17 0.28 0.00 0.03 0.04 0.17 0.13 0.19 0.35 0.61 0.32 0.65 0.37 0.13 0.47 0.43 0.54 0.60 0.51 0.46 0.34 0.31 0.48 0.38 0.56
0.60 1.21 1.24 0.37 0.34 0.25 0.42 1.04 0.64 0.40 0.41 0.41 0.41 0.38 0.53 0.50 0.59 0.50 0.58 0.31 0.49 0.65 0.64 0.40 0.28 0.44 0.32 0.47 0.30 0.15 0.14 0.11 0.23 0.33 0.38 0.56 0.33 0.57 0.41 0.03 0.07 0.08 0.24 0.29 0.34 0.26 0.22 0.34 0.45 0.24 0.32 0.48 0.08 0.12 0.05 0.08 0.12 0.13 0.14 0.18 0.16 0.21 0.09 0.14 0.21 0.20 0.15 0.06 0.04 0.27 0.26 0.53 0.52 0.58 0.33 0.37 0.12 0.09 0.40 0.54 1.05 0.53 0.60 0.30 0.22 0.23 0.60 0.51
0.90 2.03 0.84 0.53 0.43 0.46 0.99 1.02 0.52 0.58 0.66 0.32 0.21 0.32 0.36 0.50 0.41 0.29 0.60 0.44 0.69 0.61 0.58 0.43 0.33 0.31 0.33 0.45 0.26 0.28 0.11 0.22 0.19 0.39 0.19 0.23 0.29 0.25 0.08 0.10 0.17 0.10 0.20 0.48 0.15 0.38 0.29 0.42 0.56 0.35 0.17 0.15 0.16 0.05 0.09 0.31 0.06 0.11 0.17 0.14 0.16 0.31 0.12 0.12 0.13 0.29 0.28 0.29 0.20 0.18 0.10 0.90 0.66 0.77 0.48 0.26 0.23 0.17 0.25 0.81 0.46 0.83 0.70 0.53 0.30 0.20 0.20 0.33
1.42 1.39 0.68 0.91 0.83 0.73 1.27 0.89 0.71 0.49 0.49 0.28 0.36 0.56 0.38 0.56 0.38 0.40 0.31 0.52 0.78 0.41 0.81 0.40 0.24 0.37 0.50 0.54 0.37 0.15 0.14 0.36 0.11 0.17 0.24 0.11 0.38 0.17 0.16 0.21 0.08 0.25 0.33 0.68 0.52 0.37 0.77 1.05 0.61 0.97 0.52 0.49 0.45 0.23 0.23 0.10 0.11 0.16 0.28 0.18 0.13 0.12 0.13 0.18 0.22 0.23 0.16 0.17 0.27 0.18 0.48 0.41 0.74 0.48 0.28 0.46 0.22 0.62 0.68 0.70 0.81 0.75 0.87 0.51 0.30 0.15 0.12 0.18
2.17 0.67 0.65 0.87 0.98 1.21 1.40 1.22 1.00 0.59 0.57 0.57 0.54 0.62 0.70 0.48 0.26 0.27 0.33 0.45 0.54 0.58 0.65 0.43 0.40 0.38 0.60 0.46 0.15 0.05 0.14 0.13 0.49 0.37 0.12 0.27 0.34 0.05 0.16 0.41 0.21 0.30 0.26 0.26 0.12 0.39 0.49 0.95 1.04 1.17 1.13 1.19 1.12 0.98 0.91 0.72 0.49 0.29 0.15 0.13 0.15 0.10 0.14 0.20 0.14 0.19 0.11 0.14 0.15 0.22 0.17 0.49 0.60 0.32 0.38 0.75 0.78 0.81 0.89 0.60 0.62 0.74 0.61 0.58 0.87 0.27 0.69 0.44
1.22 0.65 0.48 1.36 1.36 1.64 1.13 1.03 1.24 1.14 0.86 0.85 0.82 0.58 0.58 0.54 0.25 0.36 0.14 0.60 0.29 0.70 0.67 0.54 0.44 0.47 0.51 0.30 0.16 0.15 0.12 0.15 0.25 0.30 0.16 0.26 0.12 0.03 0.07 0.08 0.07 0.13 0.06 0.06 0.13 0.21 0.51 0.66 0.74 0.91 1.12 0.95 0.98 0.80 0.65 0.31 0.55 0.59 0.39 0.23 0.19 0.19 0.24 0.19 0.16 0.14 0.24 0.25 0.16 0.37 0.31 0.53 0.53 0.49 0.25 0.30 0.35 0.26 0.36 0.36 0.62 0.52 0.72 0.45 0.60 1.12 0.80 1.00
0.97 0.71 0.57 0.94 1.40 1.69 1.55 1.11 1.42 1.16 1.44 0.95 0.91 0.69 0.71 0.47 0.43 1.00 0.25 0.38 0.14 0.78 0.98 0.72 0.41 0.46 0.43 0.39 0.28 0.28 0.11 0.08 0.34 0.28 0.23 0.19 0.16 0.05 0.01 0.02 0.06 0.13 0.07 0.08 0.07 0.23 0.37 0.56 0.76 1.28 1.25 0.89 0.70 0.62 0.77 0.38 0.68 0.40 0.25 0.30 0.17 0.13 0.36 0.16 0.15 0.26 0.40 0.13 0.43 0.44 0.35 0.23 0.49 0.32 0.32 0.26 0.28 0.13 0.12 0.17 0.11 0.13 0.33 0.77 1.20 0.48 0.42 0.35
0.96 0.37 0.54 0.78 1.70 1.62 2.09 1.82 1.50 1.64 1.30 1.02 0.78 0.53 0.63 0.54 0.40 0.46 0.08 0.11 0.27 0.52 1.36 0.70 0.83 0.74 0.87 0.71 0.54 0.32 0.13 0.19 0.16 0.17 0.38 0.15 0.21 0.05 0.04 0.01 0.04 0.11 0.20 0.19 0.06 0.17 0.52 0.51 0.66 0.59 0.85 1.00 0.56 0.60 0.56 0.78 0.52 0.38 0.25 0.17 0.40 0.32 0.14 0.32 0.18 0.39 0.42 0.27 0.59 0.60 0.49 0.31 0.44 0.37 0.36 0.56 0.23 0.12 0.10 0.13 0.14 0.10 0.11 0.17 0.42 0.49 0.61 0.68
0.99 0.18 0.76 0.68 1.54 1.47 1.72 1.71 1.88 1.99 1.51 0.90 0.74 0.67 0.66 0.67 0.39 0.22 0.20 0.36 0.54 0.46 0.76 0.51 0.61 0.98 1.02 0.87 0.29 0.20 0.16 0.44 0.16 0.47 0.42 0.51 0.18 0.15 0.25 0.13 0.14 0.11 0.20 0.09 0.13 0.12 0.26 0.37 1.17 0.56 0.71 0.76 0.72 0.50 0.50 0.43 0.43 0.39 0.20 0.20 0.31 0.17 0.27 0.21 0.20 0.25 0.31 0.31 0.31 0.28 0.22 0.24 0.27 0.31 0.39 0.53 0.34 0.11 0.10 0.06 0.08 0.05 0.08 0.09 0.16 0.14 0.43 0.42
0.77 0.69 0.46 0.45 0.84 0.92 1.16 1.42 1.53 1.20 1.00 0.72 0.82 0.57 0.84 0.66 0.54 0.44 0.33 0.38 0.27 0.35 0.20 0.54 0.52 0.67 1.54 0.94 0.56 0.60 0.22 0.71 0.67 0.34 0.46 0.41 0.42 0.17 0.23 0.16 0.52 0.31 0.36 0.73 0.46 0.61 0.32 0.54 0.22 0.59 0.74 0.82 0.98 0.90 0.52 0.31 0.34 0.48 0.21 0.17 0.22 0.17 0.25 0.25 0.17 0.18 0.09 0.28 0.29 0.18 0.16 0.26 0.51 0.34 0.50 0.70 0.33 0.07 0.09 0.38 0.07 0.11 0.09 0.08 0.11 0.10 0.13 0.25
0.86 1.06 0.81 1.40 0.86 0.49 0.87 1.29 1.61 1.18 1.07 0.78 1.14 0.58 0.70 0.46 0.35 0.57 0.34 0.50 0.40 0.44 0.50 0.34 0.41 1.32 0.88 0.82 1.10 1.42 0.97 0.39 0.82 0.27 0.81 0.69 0.37 0.20 0.28 0.25 0.05 0.23 0.43 0.36 0.22 0.62 0.43 0.53 0.31 0.48 0.99 0.78 0.67 0.80 1.41 0.73 0.49 0.63 0.82 0.55 0.47 0.27 0.44 0.43 0.34 0.43 0.26 0.57 0.76 0.51 0.40 0.57 0.58 0.25 0.74 0.43 0.37 0.19 0.23 0.46 0.51 0.54 0.43 0.48 0.42 0.34 0.14 0.15
0.89 0.77 0.67 1.17 0.87 0.27 1.06 1.12 1.44 1.33 0.77 0.80 0.94 0.88 0.71 0.35 0.91 0.16 0.40 0.30 0.37 0.79 0.57 0.21 0.69 1.02 0.42 1.22 1.42 0.94 0.38 0.48 0.47 0.16 0.36 0.27 0.28 0.72 0.03 0.22 0.08 0.15 0.13 0.27 0.33 0.55 0.69 0.60 0.69 0.75 0.69 0.63 0.76 0.68 0.85 0.85 0.85 1.10 0.84 0.57 0.47 0.47 0.46 0.46 0.29 0.23 0.53 0.69 0.87 0.73 0.94 0.62 0.49 0.33 0.39 0.59 0.43 0.41 0.66 0.46 0.68 0.50 0.36 0.41 0.33 0.21 0.15 0.17